Flag for U.S.A. Weather past 2 weeks in Irvine, California, U.S.A.

Now
64 °F

Partly cloudy.


Feels Like: 64 °F
Forecast: 56 / 63 °F
Wind: 6 mph from Southwest

Location: John Wayne Airport-Orange County Airport

Current Time: Feb 27, 2015 at 7:05:54 PM

Latest Report: Feb 27, 2015 at 5:53 PM


Visibility: 10 mi

Pressure: 29.76 "Hg

Humidity: 65%

Dew point: 52 °F

Location of IrvineLocation

Historic Weather in Irvine — Graph

°F

Irvine temperature yesterday

Maximum temperature yesterday: 68 °F (at 12:53 PM)
Minimum temperature yesterday: 53 °F (at 2:53 AM)
Average temperature yesterday: 61 °F

Past Weeks' High & Low Weather Summary

 TemperatureHumidityPressure
High87 °F (Feb 13, 12:53 PM)88% (Feb 26, 6:02 AM)30.23 "Hg (Feb 26, 6:02 AM)
Low51 °F (Feb 24, 4:53 AM)11% (Feb 13, 12:53 PM)29.76 "Hg (Feb 27, 3:53 PM)
Average64 °F57%30.00 "Hg
* Reported Feb 12 5:53 PM — Feb 27 5:53 PM, Irvine, Weather by CustomWeather, © 2015

Note: Actual official high and low records may vary slightly from our data, if they occured in-between our weather recording intervals... More about our weather records

Advertising

Irvine weather history for previous 24 hours

 ConditionsComfort  
Time TempWeatherWind HumidityBarometerVisibility
5:53 PM
Fri, Feb 27
64 °FPartly cloudy.6 mph65%29.76 "Hg10 mi
4:53 PM65 °FPartly sunny.12 mph63%29.76 "Hg10 mi
3:53 PM68 °FBroken clouds.8 mph51%29.76 "Hg10 mi
2:53 PM67 °FPartly sunny.14 mph55%29.78 "Hg10 mi
1:53 PM68 °FPartly sunny.13 mph55%29.78 "Hg10 mi
12:53 PM69 °FBroken clouds.12 mph49%29.80 "Hg10 mi
11:53 AM69 °FPartly sunny.9 mph51%29.82 "Hg10 mi
10:53 AM67 °FBroken clouds.6 mph53%29.85 "Hg10 mi
9:53 AM65 °FMostly cloudy.5 mph56%29.85 "Hg10 mi
8:58 AM64 °FPartly sunny.9 mph56%29.85 "Hg10 mi
7:53 AM61 °FScattered clouds.7 mph60%29.85 "Hg10 mi
6:53 AM59 °FScattered clouds.7 mph64%29.83 "Hg10 mi
5:53 AM58 °FPassing clouds.5 mph70%29.83 "Hg10 mi
4:53 AM58 °FOvercast.5 mph70%29.82 "Hg10 mi
3:53 AM58 °FOvercast.3 mph70%29.82 "Hg10 mi
2:53 AM57 °FPassing clouds.6 mph74%29.83 "Hg10 mi
1:53 AM57 °FClear.3 mph74%29.82 "Hg10 mi
12:53 AM58 °FPassing clouds.3 mph75%29.84 "Hg10 mi
11:53 PM
Thu, Feb 26
58 °FClear.3 mph72%29.84 "Hg10 mi
10:53 PM59 °FPassing clouds.No wind69%29.85 "Hg10 mi
9:53 PM62 °FPassing clouds.5 mph70%29.85 "Hg10 mi
8:53 PM61 °FPassing clouds.No wind72%29.85 "Hg10 mi
7:53 PM61 °FPassing clouds.6 mph75%29.85 "Hg10 mi
Weather by CustomWeather, © 2015

See weather overviewHow to use our weather pages